Year,Month,Day,Hour,Minute,Value (Times are PST for temperature in C)
2019,05,26,00,00,9.30
2019,05,26,00,01,9.30
2019,05,26,00,02,9.20
2019,05,26,00,03,9.20
2019,05,26,00,04,9.20
2019,05,26,00,05,9.20
2019,05,26,00,06,9.20
2019,05,26,00,07,9.10
2019,05,26,00,08,9.10
2019,05,26,00,09,9.10
2019,05,26,00,10,9.10
2019,05,26,00,11,9.10
2019,05,26,00,12,9.10
2019,05,26,00,13,9.10
2019,05,26,00,14,9.00
2019,05,26,00,15,9.00
2019,05,26,00,16,9.00
2019,05,26,00,17,9.00
2019,05,26,00,18,9.00
2019,05,26,00,19,9.00
2019,05,26,00,20,9.00
2019,05,26,00,21,9.00
2019,05,26,00,22,9.00
2019,05,26,00,23,9.00
2019,05,26,00,24,9.00
2019,05,26,00,25,9.00
2019,05,26,00,26,8.90
2019,05,26,00,27,8.90
2019,05,26,00,28,8.90
2019,05,26,00,29,8.90
2019,05,26,00,30,8.90
2019,05,26,00,31,8.90
2019,05,26,00,32,8.90
2019,05,26,00,33,8.90
2019,05,26,00,34,8.90
2019,05,26,00,35,8.90
2019,05,26,00,36,8.90
2019,05,26,00,37,8.90
2019,05,26,00,38,8.90
2019,05,26,00,39,8.80
2019,05,26,00,40,8.80
2019,05,26,00,41,8.80
2019,05,26,00,42,8.80
2019,05,26,00,43,8.80
2019,05,26,00,44,8.80
2019,05,26,00,45,8.80
2019,05,26,00,46,8.80
2019,05,26,00,47,8.80
2019,05,26,00,48,8.80
2019,05,26,00,49,8.80
2019,05,26,00,50,8.80
2019,05,26,00,51,8.70
2019,05,26,00,52,8.70
2019,05,26,00,53,8.80
2019,05,26,00,54,8.70
2019,05,26,00,55,8.70
2019,05,26,00,56,8.80
2019,05,26,00,57,8.80
2019,05,26,00,58,8.80
2019,05,26,00,59,8.80
2019,05,26,01,00,8.80
2019,05,26,01,01,8.80
2019,05,26,01,02,8.80
2019,05,26,01,03,8.80
2019,05,26,01,04,8.80
2019,05,26,01,05,8.80
2019,05,26,01,06,8.80
2019,05,26,01,07,8.80
2019,05,26,01,08,8.80
2019,05,26,01,09,8.80
2019,05,26,01,10,8.80
2019,05,26,01,11,8.80
2019,05,26,01,12,8.80
2019,05,26,01,13,8.80
2019,05,26,01,14,8.80
2019,05,26,01,15,8.80
2019,05,26,01,16,8.80
2019,05,26,01,17,8.80
2019,05,26,01,18,8.80
2019,05,26,01,19,8.80
2019,05,26,01,20,8.90
2019,05,26,01,21,8.90
2019,05,26,01,22,8.90
2019,05,26,01,23,8.90
2019,05,26,01,24,8.90
2019,05,26,01,25,8.90
2019,05,26,01,26,8.90
2019,05,26,01,27,8.90
2019,05,26,01,28,8.90
2019,05,26,01,29,9.00
2019,05,26,01,30,9.00
2019,05,26,01,31,9.00
2019,05,26,01,32,9.00
2019,05,26,01,33,9.00
2019,05,26,01,34,9.00
2019,05,26,01,35,9.00
2019,05,26,01,36,9.00
2019,05,26,01,37,9.00
2019,05,26,01,38,9.00
2019,05,26,01,39,9.00
2019,05,26,01,40,9.00
2019,05,26,01,41,8.90
2019,05,26,01,42,8.90
2019,05,26,01,43,8.90
2019,05,26,01,44,8.90
2019,05,26,01,45,8.90
2019,05,26,01,46,8.90
2019,05,26,01,47,8.90
2019,05,26,01,48,8.90
2019,05,26,01,49,8.90
2019,05,26,01,50,8.90
2019,05,26,01,51,8.90
2019,05,26,01,52,8.90
2019,05,26,01,53,8.90
2019,05,26,01,54,8.90
2019,05,26,01,55,8.80
2019,05,26,01,56,8.80
2019,05,26,01,57,8.80
2019,05,26,01,58,8.80
2019,05,26,01,59,8.80
2019,05,26,02,00,8.80
2019,05,26,02,01,8.80
2019,05,26,02,02,8.80
2019,05,26,02,03,8.80
2019,05,26,02,04,8.70
2019,05,26,02,05,8.70
2019,05,26,02,06,8.70
2019,05,26,02,07,8.70
2019,05,26,02,08,8.70
2019,05,26,02,09,8.60
2019,05,26,02,10,8.60
2019,05,26,02,11,8.60
2019,05,26,02,12,8.60
2019,05,26,02,13,8.60
2019,05,26,02,14,8.50
2019,05,26,02,15,8.50
2019,05,26,02,16,8.50
2019,05,26,02,17,8.40
2019,05,26,02,18,8.40
2019,05,26,02,19,8.40
2019,05,26,02,20,8.40
2019,05,26,02,21,8.40
2019,05,26,02,22,8.30
2019,05,26,02,23,8.30
2019,05,26,02,24,8.30
2019,05,26,02,25,8.30
2019,05,26,02,26,8.30
2019,05,26,02,27,8.20
2019,05,26,02,28,8.20
2019,05,26,02,29,8.20
2019,05,26,02,30,8.20
2019,05,26,02,31,8.20
2019,05,26,02,32,8.20
2019,05,26,02,33,8.20
2019,05,26,02,34,8.10
2019,05,26,02,35,8.10
2019,05,26,02,36,8.10
2019,05,26,02,37,8.10
2019,05,26,02,38,8.10
2019,05,26,02,39,8.00
2019,05,26,02,40,8.00
2019,05,26,02,41,8.00
2019,05,26,02,42,7.90
2019,05,26,02,43,7.90
2019,05,26,02,44,7.90
2019,05,26,02,45,7.90
2019,05,26,02,46,7.90
2019,05,26,02,47,7.90
2019,05,26,02,48,7.90
2019,05,26,02,49,7.80
2019,05,26,02,50,7.80
2019,05,26,02,51,7.80
2019,05,26,02,52,7.80
2019,05,26,02,53,7.80
2019,05,26,02,54,7.80
2019,05,26,02,55,7.80
2019,05,26,02,56,7.80
2019,05,26,02,57,7.80
2019,05,26,02,58,7.80
2019,05,26,02,59,7.80
2019,05,26,03,00,7.80
2019,05,26,03,01,7.80
2019,05,26,03,02,7.80
2019,05,26,03,03,7.70
2019,05,26,03,04,7.70
2019,05,26,03,05,7.70
2019,05,26,03,06,7.70
2019,05,26,03,07,7.70
2019,05,26,03,08,7.70
2019,05,26,03,09,7.70
2019,05,26,03,10,7.70
2019,05,26,03,11,7.70
2019,05,26,03,12,7.70
2019,05,26,03,13,7.70
2019,05,26,03,14,7.70
2019,05,26,03,15,7.70
2019,05,26,03,16,7.70
2019,05,26,03,17,7.70
2019,05,26,03,18,7.70
2019,05,26,03,19,7.70
2019,05,26,03,20,7.70
2019,05,26,03,21,7.70
2019,05,26,03,22,7.70
2019,05,26,03,23,7.70
2019,05,26,03,24,7.70
2019,05,26,03,25,7.70
2019,05,26,03,26,7.80
2019,05,26,03,27,7.80
2019,05,26,03,28,7.80
2019,05,26,03,29,7.80
2019,05,26,03,30,7.80
2019,05,26,03,31,7.80
2019,05,26,03,32,7.90
2019,05,26,03,33,7.90
2019,05,26,03,34,7.90
2019,05,26,03,35,7.90
2019,05,26,03,36,7.90
2019,05,26,03,37,7.90
2019,05,26,03,38,8.00
2019,05,26,03,39,8.00
2019,05,26,03,40,8.10
2019,05,26,03,41,8.10
2019,05,26,03,42,8.10
2019,05,26,03,43,8.10
2019,05,26,03,44,8.10
2019,05,26,03,45,8.10
2019,05,26,03,46,8.20
2019,05,26,03,47,8.20
2019,05,26,03,48,8.20
2019,05,26,03,49,8.20
2019,05,26,03,50,8.20
2019,05,26,03,51,8.20
2019,05,26,03,52,8.20
2019,05,26,03,53,8.20
2019,05,26,03,54,8.20
2019,05,26,03,55,8.20
2019,05,26,03,56,8.20
2019,05,26,03,57,8.20
2019,05,26,03,58,8.20
2019,05,26,03,59,8.20
2019,05,26,04,00,8.30
2019,05,26,04,01,8.30
2019,05,26,04,02,8.30
2019,05,26,04,03,8.30
2019,05,26,04,04,8.30
2019,05,26,04,05,8.30
2019,05,26,04,06,8.30
2019,05,26,04,07,8.30
2019,05,26,04,08,8.30
2019,05,26,04,09,8.30
2019,05,26,04,10,8.30
2019,05,26,04,11,8.30
2019,05,26,04,12,8.30
2019,05,26,04,13,8.30
2019,05,26,04,14,8.30
2019,05,26,04,15,8.30
2019,05,26,04,16,8.30
2019,05,26,04,17,8.30
2019,05,26,04,18,8.30
2019,05,26,04,19,8.30
2019,05,26,04,20,8.30
2019,05,26,04,21,8.30
2019,05,26,04,22,8.30
2019,05,26,04,23,8.30
2019,05,26,04,24,8.30
2019,05,26,04,25,8.30
2019,05,26,04,26,8.30
2019,05,26,04,27,8.30
2019,05,26,04,28,8.30
2019,05,26,04,29,8.30
2019,05,26,04,30,8.30
2019,05,26,04,31,8.30
2019,05,26,04,32,8.30
2019,05,26,04,33,8.20
2019,05,26,04,34,8.20
2019,05,26,04,35,8.20
2019,05,26,04,36,8.20
2019,05,26,04,37,8.20
2019,05,26,04,38,8.20
2019,05,26,04,39,8.20
2019,05,26,04,40,8.20
2019,05,26,04,41,8.20
2019,05,26,04,42,8.20
2019,05,26,04,43,8.20
2019,05,26,04,44,8.20
2019,05,26,04,45,8.20
2019,05,26,04,46,8.10
2019,05,26,04,47,8.10
2019,05,26,04,48,8.10
2019,05,26,04,49,8.10
2019,05,26,04,50,8.10
2019,05,26,04,51,8.10
2019,05,26,04,52,8.10
2019,05,26,04,53,8.00
2019,05,26,04,54,8.00
2019,05,26,04,55,8.00
2019,05,26,04,56,8.00
2019,05,26,04,57,7.90
2019,05,26,04,58,7.90
2019,05,26,04,59,7.90
2019,05,26,05,00,7.90
2019,05,26,05,01,7.90
2019,05,26,05,02,7.90
2019,05,26,05,03,7.80
2019,05,26,05,04,7.80
2019,05,26,05,05,7.80
2019,05,26,05,06,7.80
2019,05,26,05,07,7.80
2019,05,26,05,08,7.80
2019,05,26,05,09,7.70
2019,05,26,05,10,7.70
2019,05,26,05,11,7.70
2019,05,26,05,12,7.70
2019,05,26,05,13,7.70
2019,05,26,05,14,7.70
2019,05,26,05,15,7.60
2019,05,26,05,16,7.60
2019,05,26,05,17,7.60
2019,05,26,05,18,7.60
2019,05,26,05,19,7.60
2019,05,26,05,20,7.60
2019,05,26,05,21,7.60
2019,05,26,05,22,7.60
2019,05,26,05,23,7.60
2019,05,26,05,24,7.50
2019,05,26,05,25,7.50
2019,05,26,05,26,7.50
2019,05,26,05,27,7.50
2019,05,26,05,28,7.50
2019,05,26,05,29,7.50
2019,05,26,05,30,7.50
2019,05,26,05,31,7.40
2019,05,26,05,32,7.40
2019,05,26,05,33,7.40
2019,05,26,05,34,7.40
2019,05,26,05,35,7.40
2019,05,26,05,36,7.40
2019,05,26,05,37,7.40
2019,05,26,05,38,7.40
2019,05,26,05,39,7.40
2019,05,26,05,40,7.40
2019,05,26,05,41,7.40
2019,05,26,05,42,7.40
2019,05,26,05,43,7.30
2019,05,26,05,44,7.30
2019,05,26,05,45,7.30
2019,05,26,05,46,7.30
2019,05,26,05,47,7.30
2019,05,26,05,48,7.30
2019,05,26,05,49,7.30
2019,05,26,05,50,7.30
2019,05,26,05,51,7.30
2019,05,26,05,52,7.30
2019,05,26,05,53,7.30
2019,05,26,05,54,7.30
2019,05,26,05,55,7.30
2019,05,26,05,56,7.30
2019,05,26,05,57,7.30
2019,05,26,05,58,7.30
2019,05,26,05,59,7.30
2019,05,26,06,00,7.30
2019,05,26,06,01,7.30
2019,05,26,06,02,7.30
2019,05,26,06,03,7.30
2019,05,26,06,04,7.30
2019,05,26,06,05,7.30
2019,05,26,06,06,7.30
2019,05,26,06,07,7.30
2019,05,26,06,08,7.30
2019,05,26,06,09,7.30
2019,05,26,06,10,7.30
2019,05,26,06,11,7.30
2019,05,26,06,12,7.30
2019,05,26,06,13,7.30
2019,05,26,06,14,7.30
2019,05,26,06,15,7.30
2019,05,26,06,16,7.30
2019,05,26,06,17,7.30
2019,05,26,06,18,7.30
2019,05,26,06,19,7.30
2019,05,26,06,20,7.30
2019,05,26,06,21,7.30
2019,05,26,06,22,7.30
2019,05,26,06,23,7.40
2019,05,26,06,24,7.40
2019,05,26,06,25,7.40
2019,05,26,06,26,7.40
2019,05,26,06,27,7.40
2019,05,26,06,28,7.40
2019,05,26,06,29,7.50
2019,05,26,06,30,7.50
2019,05,26,06,31,7.50
2019,05,26,06,32,7.60
2019,05,26,06,33,7.60
2019,05,26,06,34,7.60
2019,05,26,06,35,7.70
2019,05,26,06,36,7.80
2019,05,26,06,37,7.80
2019,05,26,06,38,7.80
2019,05,26,06,39,8.00
2019,05,26,06,40,8.00
2019,05,26,06,41,8.10
2019,05,26,06,42,8.20
2019,05,26,06,43,8.30
2019,05,26,06,44,8.30
2019,05,26,06,45,8.40
2019,05,26,06,46,8.40
2019,05,26,06,47,8.50
2019,05,26,06,48,8.60
2019,05,26,06,49,8.60
2019,05,26,06,50,8.60
2019,05,26,06,51,8.60
2019,05,26,06,52,8.70
2019,05,26,06,53,8.70
2019,05,26,06,54,8.70
2019,05,26,06,55,8.70
2019,05,26,06,56,8.70
2019,05,26,06,57,8.70
2019,05,26,06,58,8.70
2019,05,26,06,59,8.70
2019,05,26,07,00,8.70
2019,05,26,07,01,8.70
2019,05,26,07,02,8.80
2019,05,26,07,03,8.80
2019,05,26,07,04,8.80
2019,05,26,07,05,8.80
2019,05,26,07,06,8.90
2019,05,26,07,07,9.00
2019,05,26,07,08,9.10
2019,05,26,07,09,9.10
2019,05,26,07,10,9.20
2019,05,26,07,11,9.20
2019,05,26,07,12,9.30
2019,05,26,07,13,9.30
2019,05,26,07,14,9.30
2019,05,26,07,15,9.40
2019,05,26,07,16,9.40
2019,05,26,07,17,9.40
2019,05,26,07,18,9.40
2019,05,26,07,19,9.40
2019,05,26,07,20,9.50
2019,05,26,07,21,9.50
2019,05,26,07,22,9.60
2019,05,26,07,23,9.70
2019,05,26,07,24,9.70
2019,05,26,07,25,9.80
2019,05,26,07,26,9.90
2019,05,26,07,27,10.00
2019,05,26,07,28,10.00
2019,05,26,07,29,10.10
2019,05,26,07,30,10.10
2019,05,26,07,31,10.20
2019,05,26,07,32,10.20
2019,05,26,07,33,10.30
2019,05,26,07,34,10.30
2019,05,26,07,35,10.40
2019,05,26,07,36,10.40
2019,05,26,07,37,10.40
2019,05,26,07,38,10.40
2019,05,26,07,39,10.40
2019,05,26,07,40,10.50
2019,05,26,07,41,10.50
2019,05,26,07,42,10.50
2019,05,26,07,43,10.60
2019,05,26,07,44,10.70
2019,05,26,07,45,10.70
2019,05,26,07,46,10.80
2019,05,26,07,47,10.90
2019,05,26,07,48,10.90
2019,05,26,07,49,11.00
2019,05,26,07,50,11.00
2019,05,26,07,51,11.10
2019,05,26,07,52,11.10
2019,05,26,07,53,11.20
2019,05,26,07,54,11.40
2019,05,26,07,55,11.50
2019,05,26,07,56,11.60
2019,05,26,07,57,11.60
2019,05,26,07,58,11.70
2019,05,26,07,59,11.80
2019,05,26,08,00,11.90
2019,05,26,08,01,12.00
2019,05,26,08,02,12.10
2019,05,26,08,03,12.20
2019,05,26,08,04,12.30
2019,05,26,08,05,12.40
2019,05,26,08,06,12.40
2019,05,26,08,07,12.50
2019,05,26,08,08,12.60
2019,05,26,08,09,12.70
2019,05,26,08,10,12.80
2019,05,26,08,11,12.90
2019,05,26,08,12,13.00
2019,05,26,08,13,13.00
2019,05,26,08,14,13.00
2019,05,26,08,15,13.00
2019,05,26,08,16,13.00
2019,05,26,08,17,13.10
2019,05,26,08,18,13.20
2019,05,26,08,19,13.30
2019,05,26,08,20,13.40
2019,05,26,08,21,13.50
2019,05,26,08,22,13.50
2019,05,26,08,23,13.60
2019,05,26,08,24,13.60
2019,05,26,08,25,13.70
2019,05,26,08,26,13.80
2019,05,26,08,27,13.90
2019,05,26,08,28,13.90
2019,05,26,08,29,13.90
2019,05,26,08,30,13.90
2019,05,26,08,31,13.90
2019,05,26,08,32,13.90
2019,05,26,08,33,13.90
2019,05,26,08,34,13.90
2019,05,26,08,35,13.90
2019,05,26,08,36,13.90
2019,05,26,08,37,14.00
2019,05,26,08,38,14.00
2019,05,26,08,39,14.10
2019,05,26,08,40,14.10
2019,05,26,08,41,14.20
2019,05,26,08,42,14.20
2019,05,26,08,43,14.30
2019,05,26,08,44,14.30
2019,05,26,08,45,14.30
2019,05,26,08,46,14.20
2019,05,26,08,47,14.20
2019,05,26,08,48,14.20
2019,05,26,08,49,14.20
2019,05,26,08,50,14.00
2019,05,26,08,51,13.80
2019,05,26,08,52,13.80
2019,05,26,08,53,13.80
2019,05,26,08,54,13.80
2019,05,26,08,55,13.90
2019,05,26,08,56,14.00
2019,05,26,08,57,14.10
2019,05,26,08,58,14.20
2019,05,26,08,59,14.30
2019,05,26,09,00,14.40
2019,05,26,09,01,14.50
2019,05,26,09,02,14.60
2019,05,26,09,03,14.70
2019,05,26,09,04,14.80
2019,05,26,09,05,14.80
2019,05,26,09,06,14.80
2019,05,26,09,07,14.80
2019,05,26,09,08,14.80
2019,05,26,09,09,14.80
2019,05,26,09,10,14.80
2019,05,26,09,11,14.90
2019,05,26,09,12,14.90
2019,05,26,09,13,14.90
2019,05,26,09,14,15.00
2019,05,26,09,15,15.00
2019,05,26,09,16,15.10
2019,05,26,09,17,15.20
2019,05,26,09,18,15.30
2019,05,26,09,19,15.40
2019,05,26,09,20,15.50
2019,05,26,09,21,15.50
2019,05,26,09,22,15.60
2019,05,26,09,23,15.70
2019,05,26,09,24,15.70
2019,05,26,09,25,15.80
2019,05,26,09,26,15.80
2019,05,26,09,27,15.80
2019,05,26,09,28,15.80
2019,05,26,09,29,15.80
2019,05,26,09,30,15.90
2019,05,26,09,31,15.90
2019,05,26,09,32,15.90
2019,05,26,09,33,15.90
2019,05,26,09,34,16.10
2019,05,26,09,35,16.20
2019,05,26,09,36,16.30
2019,05,26,09,37,16.50
2019,05,26,09,38,16.60
2019,05,26,09,39,16.80
2019,05,26,09,40,16.90
2019,05,26,09,41,17.00
2019,05,26,09,42,17.10
2019,05,26,09,43,17.20
2019,05,26,09,44,17.30
2019,05,26,09,45,17.30
2019,05,26,09,46,17.30
2019,05,26,09,47,17.40
2019,05,26,09,48,17.50
2019,05,26,09,49,17.60
2019,05,26,09,50,17.70
2019,05,26,09,51,17.80
2019,05,26,09,52,17.90
2019,05,26,09,53,18.00
2019,05,26,09,54,18.10
2019,05,26,09,55,18.20
2019,05,26,09,56,18.30
2019,05,26,09,57,18.40
2019,05,26,09,58,18.50
2019,05,26,09,59,18.50
2019,05,26,10,00,18.60
2019,05,26,10,01,18.60
2019,05,26,10,02,18.60
2019,05,26,10,03,18.60
2019,05,26,10,04,18.60
2019,05,26,10,05,18.50
2019,05,26,10,06,18.50
2019,05,26,10,07,18.40
2019,05,26,10,08,18.40
2019,05,26,10,09,18.40
2019,05,26,10,10,18.50
2019,05,26,10,11,18.60
2019,05,26,10,12,18.60
2019,05,26,10,13,18.60
2019,05,26,10,14,18.60
2019,05,26,10,15,18.60
2019,05,26,10,16,18.70
2019,05,26,10,17,18.70
2019,05,26,10,18,18.80
2019,05,26,10,19,18.80
2019,05,26,10,20,18.90
2019,05,26,10,21,18.90
2019,05,26,10,22,19.00
2019,05,26,10,23,18.90
2019,05,26,10,24,18.90
2019,05,26,10,25,18.90
2019,05,26,10,26,19.00
2019,05,26,10,27,19.00
2019,05,26,10,28,19.00
2019,05,26,10,29,19.00
2019,05,26,10,30,19.00
2019,05,26,10,31,18.90
2019,05,26,10,32,19.00
2019,05,26,10,33,19.00
2019,05,26,10,34,19.10
2019,05,26,10,35,19.20
2019,05,26,10,36,19.20
2019,05,26,10,37,19.30
2019,05,26,10,38,19.30
2019,05,26,10,39,19.30
2019,05,26,10,40,19.20
2019,05,26,10,41,19.20
2019,05,26,10,42,19.30
2019,05,26,10,43,19.40
2019,05,26,10,44,19.50
2019,05,26,10,45,19.50
2019,05,26,10,46,19.50
2019,05,26,10,47,19.50
2019,05,26,10,48,19.60
2019,05,26,10,49,19.50
2019,05,26,10,50,19.50
2019,05,26,10,51,19.60
2019,05,26,10,52,19.60
2019,05,26,10,53,19.70
2019,05,26,10,54,19.70
2019,05,26,10,55,19.80
2019,05,26,10,56,20.00
2019,05,26,10,57,20.20
2019,05,26,10,58,20.20
2019,05,26,10,59,20.20
2019,05,26,11,00,20.30
2019,05,26,11,01,20.30
2019,05,26,11,02,20.40
2019,05,26,11,03,20.60
2019,05,26,11,04,20.70
2019,05,26,11,05,20.80
2019,05,26,11,06,20.90
2019,05,26,11,07,21.00
2019,05,26,11,08,21.00
2019,05,26,11,09,20.90
2019,05,26,11,10,20.90
2019,05,26,11,11,20.90
2019,05,26,11,12,20.90
2019,05,26,11,13,20.80
2019,05,26,11,14,20.70
2019,05,26,11,15,20.60
2019,05,26,11,16,20.50
2019,05,26,11,17,20.40
2019,05,26,11,18,20.40
2019,05,26,11,19,20.40
2019,05,26,11,20,20.30
2019,05,26,11,21,20.30
2019,05,26,11,22,20.30
2019,05,26,11,23,20.30
2019,05,26,11,24,20.30
2019,05,26,11,25,20.30
2019,05,26,11,26,20.40
2019,05,26,11,27,20.50
2019,05,26,11,28,20.60
2019,05,26,11,29,20.60
2019,05,26,11,30,20.70
2019,05,26,11,31,20.70
2019,05,26,11,32,20.80
2019,05,26,11,33,21.00
2019,05,26,11,34,21.10
2019,05,26,11,35,21.10
2019,05,26,11,36,21.10
2019,05,26,11,37,21.20
2019,05,26,11,38,21.20
2019,05,26,11,39,21.10
2019,05,26,11,40,21.10
2019,05,26,11,41,21.10
2019,05,26,11,42,21.00
2019,05,26,11,43,21.00
2019,05,26,11,44,20.90
2019,05,26,11,45,20.80
2019,05,26,11,46,20.70
2019,05,26,11,47,20.70
2019,05,26,11,48,20.70
2019,05,26,11,49,20.70
2019,05,26,11,50,20.80
2019,05,26,11,51,20.90
2019,05,26,11,52,20.90
2019,05,26,11,53,20.90
2019,05,26,11,54,20.90
2019,05,26,11,55,20.90
2019,05,26,11,56,20.90
2019,05,26,11,57,20.90
2019,05,26,11,58,20.90
2019,05,26,11,59,20.90
2019,05,26,12,00,20.90
2019,05,26,12,01,20.90
2019,05,26,12,02,20.90
2019,05,26,12,03,20.80
2019,05,26,12,04,20.60
2019,05,26,12,05,20.50
2019,05,26,12,06,20.30
2019,05,26,12,07,20.10
2019,05,26,12,08,20.00
2019,05,26,12,09,19.90
2019,05,26,12,10,19.80
2019,05,26,12,11,19.70
2019,05,26,12,12,19.70
2019,05,26,12,13,19.70
2019,05,26,12,14,19.70
2019,05,26,12,15,19.60
2019,05,26,12,16,19.50
2019,05,26,12,17,19.50
2019,05,26,12,18,19.50
2019,05,26,12,19,19.50
2019,05,26,12,20,19.60
2019,05,26,12,21,19.60
2019,05,26,12,22,19.50
2019,05,26,12,23,19.30
2019,05,26,12,24,19.20
2019,05,26,12,25,19.20
2019,05,26,12,26,19.10
2019,05,26,12,27,19.00
2019,05,26,12,28,18.90
2019,05,26,12,29,19.00
2019,05,26,12,30,19.10
2019,05,26,12,31,19.20
2019,05,26,12,32,19.40
2019,05,26,12,33,19.40
2019,05,26,12,34,19.40
2019,05,26,12,35,19.30
2019,05,26,12,36,19.20
2019,05,26,12,37,19.20
2019,05,26,12,38,19.20
2019,05,26,12,39,19.10
2019,05,26,12,40,19.10
2019,05,26,12,41,19.00
2019,05,26,12,42,18.90
2019,05,26,12,43,18.90
2019,05,26,12,44,18.90
2019,05,26,12,45,18.90
2019,05,26,12,46,18.90
2019,05,26,12,47,18.90
2019,05,26,12,48,19.00
2019,05,26,12,49,19.10
2019,05,26,12,50,19.30
2019,05,26,12,51,19.40
2019,05,26,12,52,19.50
2019,05,26,12,53,19.50
2019,05,26,12,54,19.60
2019,05,26,12,55,19.70
2019,05,26,12,56,19.70
2019,05,26,12,57,19.70
2019,05,26,12,58,19.70
2019,05,26,12,59,19.90
2019,05,26,13,00,20.00
2019,05,26,13,01,20.10
2019,05,26,13,02,20.00
2019,05,26,13,03,19.80
2019,05,26,13,04,19.70
2019,05,26,13,05,19.70
2019,05,26,13,06,19.70
2019,05,26,13,07,19.70
2019,05,26,13,08,19.70
2019,05,26,13,09,19.80
2019,05,26,13,10,19.90
2019,05,26,13,11,19.90
2019,05,26,13,12,19.90
2019,05,26,13,13,19.90
2019,05,26,13,14,19.90
2019,05,26,13,15,19.80
2019,05,26,13,16,19.70
2019,05,26,13,17,19.70
2019,05,26,13,18,19.60
2019,05,26,13,19,19.60
2019,05,26,13,20,19.50
2019,05,26,13,21,19.50
2019,05,26,13,22,19.60
2019,05,26,13,23,19.60
2019,05,26,13,24,19.50
2019,05,26,13,25,19.50
2019,05,26,13,26,19.50
2019,05,26,13,27,19.50
2019,05,26,13,28,19.50
2019,05,26,13,29,19.50
2019,05,26,13,30,19.60
2019,05,26,13,31,19.60
2019,05,26,13,32,19.70
2019,05,26,13,33,19.70
2019,05,26,13,34,19.80
2019,05,26,13,35,19.80
2019,05,26,13,36,19.90
2019,05,26,13,37,19.90
2019,05,26,13,38,19.90
2019,05,26,13,39,19.90
2019,05,26,13,40,19.90
2019,05,26,13,41,19.80
2019,05,26,13,42,19.70
2019,05,26,13,43,19.70
2019,05,26,13,44,19.60
2019,05,26,13,45,19.60
2019,05,26,13,46,19.60
2019,05,26,13,47,19.50
2019,05,26,13,48,19.50
2019,05,26,13,49,19.40
2019,05,26,13,50,19.40
2019,05,26,13,51,19.30
2019,05,26,13,52,19.30
2019,05,26,13,53,19.30
2019,05,26,13,54,19.30
2019,05,26,13,55,19.20
2019,05,26,13,56,19.20
2019,05,26,13,57,19.10
2019,05,26,13,58,19.10
2019,05,26,13,59,19.10
2019,05,26,14,00,19.00
2019,05,26,14,01,19.00
2019,05,26,14,02,19.00
2019,05,26,14,03,19.00
2019,05,26,14,04,19.00
2019,05,26,14,05,19.10
2019,05,26,14,06,19.10
2019,05,26,14,07,19.10
2019,05,26,14,08,19.20
2019,05,26,14,09,19.20
2019,05,26,14,10,19.20
2019,05,26,14,11,19.20
2019,05,26,14,12,19.30
2019,05,26,14,13,19.40
2019,05,26,14,14,19.40
2019,05,26,14,15,19.40
2019,05,26,14,16,19.40
2019,05,26,14,17,19.30
2019,05,26,14,18,19.20
2019,05,26,14,19,19.20
2019,05,26,14,20,19.20
2019,05,26,14,21,19.20
2019,05,26,14,22,19.20
2019,05,26,14,23,19.20
2019,05,26,14,24,19.20
2019,05,26,14,25,19.30
2019,05,26,14,26,19.30
2019,05,26,14,27,19.20
2019,05,26,14,28,19.20
2019,05,26,14,29,19.20
2019,05,26,14,30,19.20
2019,05,26,14,31,19.20
2019,05,26,14,32,19.30
2019,05,26,14,33,19.30
2019,05,26,14,34,19.40
2019,05,26,14,35,19.50
2019,05,26,14,36,19.50
2019,05,26,14,37,19.60
2019,05,26,14,38,19.60
2019,05,26,14,39,19.60
2019,05,26,14,40,19.60
2019,05,26,14,41,19.60
2019,05,26,14,42,19.60
2019,05,26,14,43,19.70
2019,05,26,14,44,19.70
2019,05,26,14,45,19.70
2019,05,26,14,46,19.70
2019,05,26,14,47,19.80
2019,05,26,14,48,19.80
2019,05,26,14,49,19.90
2019,05,26,14,50,20.00
2019,05,26,14,51,20.00
2019,05,26,14,52,20.10
2019,05,26,14,53,20.10
2019,05,26,14,54,20.20
2019,05,26,14,55,20.30
2019,05,26,14,56,20.30
2019,05,26,14,57,20.40
2019,05,26,14,58,20.50
2019,05,26,14,59,20.60
2019,05,26,15,00,20.70
2019,05,26,15,01,20.80
2019,05,26,15,02,20.90
2019,05,26,15,03,21.00
2019,05,26,15,04,21.10
2019,05,26,15,05,21.20
2019,05,26,15,06,21.20
2019,05,26,15,07,21.20
2019,05,26,15,08,21.10
2019,05,26,15,09,21.20
2019,05,26,15,10,21.30
2019,05,26,15,11,21.30
2019,05,26,15,12,21.30
2019,05,26,15,13,21.40
2019,05,26,15,14,21.40
2019,05,26,15,15,21.40
2019,05,26,15,16,21.50
2019,05,26,15,17,21.50
2019,05,26,15,18,21.60
2019,05,26,15,19,21.60
2019,05,26,15,20,21.50
2019,05,26,15,21,21.50
2019,05,26,15,22,21.60
2019,05,26,15,23,21.60
2019,05,26,15,24,21.70
2019,05,26,15,25,21.70
2019,05,26,15,26,21.70
2019,05,26,15,27,21.60
2019,05,26,15,28,21.50
2019,05,26,15,29,21.40
2019,05,26,15,30,21.30
2019,05,26,15,31,21.20
2019,05,26,15,32,21.10
2019,05,26,15,33,21.10
2019,05,26,15,34,21.10
2019,05,26,15,35,21.10
2019,05,26,15,36,21.20
2019,05,26,15,37,21.20
2019,05,26,15,38,21.30
2019,05,26,15,39,21.30
2019,05,26,15,40,21.30
2019,05,26,15,41,21.30
2019,05,26,15,42,21.40
2019,05,26,15,43,21.40
2019,05,26,15,44,21.50
2019,05,26,15,45,21.60
2019,05,26,15,46,21.60
2019,05,26,15,47,21.70
2019,05,26,15,48,21.80
2019,05,26,15,49,21.90
2019,05,26,15,50,22.00
2019,05,26,15,51,22.10
2019,05,26,15,52,22.20
2019,05,26,15,53,22.30
2019,05,26,15,54,22.40
2019,05,26,15,55,22.50
2019,05,26,15,56,22.60
2019,05,26,15,57,22.60
2019,05,26,15,58,22.50
2019,05,26,15,59,22.50
2019,05,26,16,00,22.40
2019,05,26,16,01,22.40
2019,05,26,16,02,22.50
2019,05,26,16,03,22.50
2019,05,26,16,04,22.60
2019,05,26,16,05,22.70
2019,05,26,16,06,22.70
2019,05,26,16,07,22.80
2019,05,26,16,08,22.80
2019,05,26,16,09,22.90
2019,05,26,16,10,23.00
2019,05,26,16,11,23.10
2019,05,26,16,12,23.20
2019,05,26,16,13,23.30
2019,05,26,16,14,23.30
2019,05,26,16,15,23.40
2019,05,26,16,16,23.50
2019,05,26,16,17,23.50
2019,05,26,16,18,23.60
2019,05,26,16,19,23.70
2019,05,26,16,20,23.80
2019,05,26,16,21,23.90
2019,05,26,16,22,24.00
2019,05,26,16,23,24.00
2019,05,26,16,24,24.10
2019,05,26,16,25,24.20
2019,05,26,16,26,24.20
2019,05,26,16,27,24.30
2019,05,26,16,28,24.30
2019,05,26,16,29,24.20
2019,05,26,16,30,24.20
2019,05,26,16,31,24.20
2019,05,26,16,32,24.10
2019,05,26,16,33,24.00
2019,05,26,16,34,24.00
2019,05,26,16,35,23.90
2019,05,26,16,36,23.90
2019,05,26,16,37,23.90
2019,05,26,16,38,24.00
2019,05,26,16,39,24.00
2019,05,26,16,40,24.10
2019,05,26,16,41,24.10
2019,05,26,16,42,24.10
2019,05,26,16,43,24.10
2019,05,26,16,44,24.10
2019,05,26,16,45,24.20
2019,05,26,16,46,24.20
2019,05,26,16,47,24.20
2019,05,26,16,48,24.30
2019,05,26,16,49,24.40
2019,05,26,16,50,24.40
2019,05,26,16,51,24.50
2019,05,26,16,52,24.60
2019,05,26,16,53,24.60
2019,05,26,16,54,24.60
2019,05,26,16,55,24.60
2019,05,26,16,56,24.60
2019,05,26,16,57,24.60
2019,05,26,16,58,24.60
2019,05,26,16,59,24.50
2019,05,26,17,00,24.40
2019,05,26,17,01,24.30
2019,05,26,17,02,24.20
2019,05,26,17,03,24.20
2019,05,26,17,04,24.10
2019,05,26,17,05,24.00
2019,05,26,17,06,23.90
2019,05,26,17,07,23.90
2019,05,26,17,08,23.90
2019,05,26,17,09,23.80
2019,05,26,17,10,23.80
2019,05,26,17,11,23.80
2019,05,26,17,12,23.80
2019,05,26,17,13,23.80
2019,05,26,17,14,23.80
2019,05,26,17,15,23.80
2019,05,26,17,16,23.70
2019,05,26,17,17,23.60
2019,05,26,17,18,23.60
2019,05,26,17,19,23.50
2019,05,26,17,20,23.50
2019,05,26,17,21,23.40
2019,05,26,17,22,23.30
2019,05,26,17,23,23.30
2019,05,26,17,24,23.20
2019,05,26,17,25,23.20
2019,05,26,17,26,23.20
2019,05,26,17,27,23.20
2019,05,26,17,28,23.20
2019,05,26,17,29,23.20
2019,05,26,17,30,23.20
2019,05,26,17,31,23.30
2019,05,26,17,32,23.30
2019,05,26,17,33,23.40
2019,05,26,17,34,23.40
2019,05,26,17,35,23.40
2019,05,26,17,36,23.40
2019,05,26,17,37,23.40
2019,05,26,17,38,23.40